Satellite: FALCON
Catalog number: 30776
Epoch time:      09141.66506197
Element set:     572
Inclination:      035.4341 deg
RA of node:       260.3245 deg
Eccentricity:    0.0001093
Arg of perigee:   002.2749 deg
Mean anomaly:     357.7972 deg
Mean motion:   15.03241986 rev/day
Decay rate:       3.41e-06 rev/day^2
Epoch rev:           12110
Checksum:              272

Satellite: MAST
Catalog number: 31126
Epoch time:      09140.70501020
Element set:    0600
Inclination:      097.9893 deg
RA of node:       196.7643 deg
Eccentricity:    0.0095050
Arg of perigee:   005.9280 deg
Mean anomaly:     354.3015 deg
Mean motion:   14.53495858 rev/day
Decay rate:        7.0e-07 rev/day^2
Epoch rev:           11104
Checksum:              269

Satellite: CAPE1
Catalog number: 31130
Epoch time:      09140.92341082
Element set:    0606
Inclination:      097.9918 deg
RA of node:       195.2186 deg
Eccentricity:    0.0102953
Arg of perigee:   010.6839 deg
Mean anomaly:     349.6453 deg
Mean motion:   14.52056383 rev/day
Decay rate:      -2.25e-06 rev/day^2
Epoch rev:           11073
Checksum:              288

Satellite: COMPASS
Catalog number: 32787
Epoch time:      09141.22280540
Element set:     361
Inclination:      097.9412 deg
RA of node:       205.2708 deg
Eccentricity:    0.0016838
Arg of perigee:   118.1258 deg
Mean anomaly:     242.1654 deg
Mean motion:   14.81600216 rev/day
Decay rate:       3.43e-06 rev/day^2
Epoch rev:            5745
Checksum:              276

Satellite: AAUSAT2
Catalog number: 32788
Epoch time:      09141.73315891
Element set:     363
Inclination:      097.9435 deg
RA of node:       205.8324 deg
Eccentricity:    0.0016883
Arg of perigee:   118.6604 deg
Mean anomaly:     241.6311 deg
Mean motion:   14.81721695 rev/day
Decay rate:       1.02e-06 rev/day^2
Epoch rev:            5753
Checksum:              301

Satellite: DO-64
Catalog number: 32789
Epoch time:      09140.74153294
Element set:    0374
Inclination:      097.9487 deg
RA of node:       204.9939 deg
Eccentricity:    0.0016729
Arg of perigee:   118.2638 deg
Mean anomaly:     242.0266 deg
Mean motion:   14.81699430 rev/day
Decay rate:       5.24e-06 rev/day^2
Epoch rev:           05738
Checksum:              347

Satellite: CO-66
Catalog number: 32791
Epoch time:      09141.19500959
Element set:     354
Inclination:      097.9463 deg
RA of node:       205.2770 deg
Eccentricity:    0.0017044
Arg of perigee:   115.4086 deg
Mean anomaly:     244.8878 deg
Mean motion:   14.81430423 rev/day
Decay rate:        1.3e-07 rev/day^2
Epoch rev:            5741
Checksum:              304

Satellite: RS-30
Catalog number: 32953
Epoch time:      09141.54766238
Element set:     309
Inclination:      082.4995 deg
RA of node:       273.1758 deg
Eccentricity:    0.0018303
Arg of perigee:   234.8288 deg
Mean anomaly:     125.1080 deg
Mean motion:   12.43001056 rev/day
Decay rate:        1.0e-07 rev/day^2
Epoch rev:            4508
Checksum:              281

Satellite: OBJECTA
Catalog number: 35001
Epoch time:      09141.79712030
Element set:       5
Inclination:      040.4561 deg
RA of node:       038.4590 deg
Eccentricity:    0.0026046
Arg of perigee:   323.4092 deg
Mean anomaly:     036.4948 deg
Mean motion:   15.38727394 rev/day
Decay rate:      1.243e-05 rev/day^2
Epoch rev:              28
Checksum:              259

Satellite: OBJECTB
Catalog number: 35002
Epoch time:      09141.79620806
Element set:       8
Inclination:      040.4696 deg
RA of node:       038.4430 deg
Eccentricity:    0.0028410
Arg of perigee:   327.4292 deg
Mean anomaly:     032.4641 deg
Mean motion:   15.39512352 rev/day
Decay rate:      3.836e-05 rev/day^2
Epoch rev:              27
Checksum:              259

Satellite: OBJECTC
Catalog number: 35003
Epoch time:      09141.79589500
Element set:       5
Inclination:      040.4708 deg
RA of node:       038.4423 deg
Eccentricity:    0.0029441
Arg of perigee:   329.4663 deg
Mean anomaly:     030.4439 deg
Mean motion:   15.39779563 rev/day
Decay rate:      1.235e-05 rev/day^2
Epoch rev:              28
Checksum:              281

Satellite: OBJECTE
Catalog number: 35005
Epoch time:      09141.80158962
Element set:       1
Inclination:      040.4690 deg
RA of node:       038.4087 deg
Eccentricity:    0.0024131
Arg of perigee:   329.7663 deg
Mean anomaly:     061.0596 deg
Mean motion:   15.39658797 rev/day
Decay rate:      -2.46e-06 rev/day^2
Epoch rev:              27
Checksum:              286

/EX




_______________________________________________
Via the Keps mailing list courtesy of AMSAT-NA
http://amsat.org/mailman/listinfo/keps

--- ViaMAIL!/WC v1.60d
 * Origin: Chowdanet (401-724-4410) telnet://chowdanet.com  (1:323/120)